Weather in Chernorud

Russia / Irkutsk Oblast     53°00′04″N   106°42′40″E
temp.,
°C
wind,
m/s
gust,
m/s
humid.,
%
clouds,
%
prec.,
mm/h
press.,
hPa
HPBL,
m
21 january, thu
thu2123:00−18wnw477987 0.0 1028381
02:00−22nw578475 0.0 1032317
05:00−23nw569241 0.0 1033194
08:00−23nw559521 0.0 1034141
11:00−20nw33850 0.0 1032167
14:00−16wnw12660 0.0 1030390
17:00−18ne11750 0.0 1028186
20:00−18n218332 0.0 1027158
22 january, fri
fri2223:00−17nne339197 0.0 1024217
02:00−15nne449599 0.1 1023304
05:00−14nne3494100 0.1 1021323
08:00−14ne2391100 0.1 1021270
11:00−13nne2290100 0.1 1020350
14:00−12ne2290100 0.1 1016333
17:00−13ne3495100 0.1 1014238
20:00−12ne4595100 0.1 1012250
23 january, sat
sat2323:00−11ne2393100 0.1 1011242
02:00−12nnw2193100 0.2 1012119
05:00−10wsw238185 0.0 1013136
08:00−9w337993 0.0 1016147
11:00−7nw3377100 0.0 1017158
14:00−5nw2380100 0.1 1019320
17:00−7nw3481100 0.3 1022276
20:00−9nw4579100 0.3 1025228
24 january, sun
sun2423:00−11nw4577100 0.0 1027203
02:00−12nw4475100 0.0 1028184
05:00−13nw4474100 0.0 1029166
08:00−14nw4478100 0.0 1031152
11:00−14nw4473100 0.0 1031163
14:00−12nw3469100 0.0 1031250
17:00−14nw4472100 0.0 1031217
20:00−16nw4480100 0.0 1032160
25 january, mon
mon2523:00−17nw4585100 0.0 1032152
02:00−18nw5588100 0.0 1031159
05:00−19nw6693100 0.0 1030187
08:00−19nw6793100 0.0 1029266
11:00−19nw6885100 0.0 1029401
14:00−17nw4870100 0.0 1027862
17:00−18nw4974100 0.0 1028990
20:00−19nw4978100 0.0 1030781